GW1675 Weather Reports


Display with metric or nautical units.
time (UTC)temp
F
wind
direction
speed
MPH
gust
MPH
rain 1hr
in
rain 24hr
in
rain mn
in
humidity
%
barometer
mb
20260903110058 89 172 3.0 6.0 0.00 0.00 0.00 69 1021.0
20260903104603 87 174 3.0 8.0 0.00 0.00 0.00 68 1021.0
20260903103057 87 174 4.0 8.0 0.00 0.00 0.00 68 1021.0
20260903101554 88 176 3.0 7.0 0.00 0.00 0.00 68 1021.0
20260903100046 87 176 2.0 5.0 0.00 0.00 0.00 68 1020.7
20260903094607 88 175 3.0 5.0 0.00 0.00 0.00 68 1020.8
20260903093057 87 176 1.0 4.0 0.00 0.00 0.00 68 1020.8
20260903091551 85 176 1.0 2.0 0.00 0.00 0.00 68 1020.7
20260903090106 83 0 0.0 0.0 0.00 0.00 0.00 68 1020.6
20260903084556 81 0 0.0 0.0 0.00 0.00 0.00 67 1020.5
20260903083101 80 0 0.0 0.0 0.00 0.00 0.00 67 1020.5
20260903081615 78 0 0.0 0.0 0.00 0.00 0.00 67 1020.2
20260903080055 77 0 0.0 0.0 0.00 0.00 0.00 66 1020.4
20260903074605 77 0 0.0 0.0 0.00 0.00 0.00 66 1020.4
20260903073135 76 0 0.0 0.0 0.00 0.00 0.00 66 1020.3
20260903071618 74 0 0.0 0.0 0.00 0.00 0.00 66 1020.2
20260903070057 73 176 0.0 1.0 0.00 0.00 0.00 65 1020.1
20260903064558 72 0 0.0 1.0 0.00 0.00 0.00 65 1020.1
20260903063058 72 0 0.0 0.0 0.00 0.00 0.00 65 1019.9
20260903061555 71 0 0.0 0.0 0.00 0.00 0.00 65 1019.9
20260903060118 71 0 0.0 1.0 0.00 0.00 0.00 65 1019.6
20260903054555 71 0 0.0 0.0 0.00 0.00 0.00 65 1019.6
20260903053056 71 0 0.0 0.0 0.00 0.00 0.00 65 1019.6
20260903051608 71 0 0.0 0.0 0.00 0.00 0.00 65 1019.8
20260903050101 71 0 0.0 0.0 0.00 0.00 0.00 65 1019.9
20260903044553 71 0 0.0 0.0 0.00 0.00 0.00 65 1019.6
20260903043054 71 0 0.0 0.0 0.00 0.00 0.00 65 1019.7
20260903041602 71 0 0.0 1.0 0.00 0.00 0.00 65 1019.7
20260903040104 71 0 0.0 0.0 0.00 0.00 0.00 65 1019.8
20260903034555 70 175 1.0 3.0 0.00 0.00 0.00 64 1019.8
20260903033052 70 176 2.0 3.0 0.00 0.00 0.00 64 1019.8
20260903031557 71 176 1.0 3.0 0.00 0.00 0.00 64 1019.8
20260903030059 71 176 0.0 1.0 0.00 0.00 0.00 65 1019.8
20260903024557 72 0 0.0 0.0 0.00 0.00 0.00 65 1019.9
20260903023102 72 0 0.0 0.0 0.00 0.00 0.00 65 1019.8
20260903021608 72 0 1.0 3.0 0.00 0.00 0.00 65 1019.8
20260903020106 73 176 0.0 2.0 0.00 0.00 0.00 65 1019.6
20260903014604 74 0 0.0 0.0 0.00 0.00 0.00 65 1019.7
20260903013109 74 176 0.0 1.0 0.00 0.00 0.00 65 1019.7
20260903011559 74 0 0.0 0.0 0.00 0.00 0.00 65 1019.8
20260903010056 75 0 0.0 0.0 0.00 0.00 0.00 65 1019.8
20260903004555 75 0 0.0 1.0 0.00 0.00 0.00 65 1019.9
20260903003048 75 0 0.0 2.0 0.00 0.00 0.00 65 1019.9
20260903001612 76 176 0.0 0.0 0.00 0.00 0.00 65 1019.9
20260903000057 77 0 0.0 0.0 0.00 0.00 0.00 65 1019.9
20260902234612 77 176 2.0 3.0 0.00 0.00 0.00 65 1019.9
20260902233056 78 0 0.0 0.0 0.00 0.00 0.00 65 1019.9
20260902231612 77 0 0.0 1.0 0.00 0.00 0.00 65 1019.7
20260902230107 77 0 0.0 0.0 0.00 0.00 0.00 65 1019.6
20260902224554 77 175 0.0 2.0 0.00 0.00 0.00 65 1019.7
20260902223051 77 0 0.0 0.0 0.00 0.00 0.00 65 1019.7
20260902221559 77 0 0.0 0.0 0.00 0.00 0.00 65 1019.9
20260902214613 79 0 0.0 0.0 0.00 0.00 0.00 66 1020.1
20260902213102 79 0 0.0 0.0 0.00 0.00 0.00 66 1020.0
20260902211557 79 0 0.0 0.0 0.00 0.00 0.00 66 1019.8
20260902210056 79 0 0.0 0.0 0.00 0.00 0.00 66 1019.7
20260902204556 80 0 0.0 0.0 0.00 0.00 0.00 66 1019.5
20260902203101 81 0 0.0 0.0 0.00 0.00 0.00 66 1019.2
20260902201558 82 176 1.0 2.0 0.00 0.00 0.00 66 1019.2
20260902200054 83 175 0.0 1.0 0.00 0.00 0.00 66 1018.9
20260902194553 83 0 0.0 2.0 0.00 0.00 0.00 66 1018.6
20260902193104 84 0 1.0 2.0 0.00 0.00 0.00 66 1018.4
20260902191559 85 0 0.0 2.0 0.00 0.00 0.00 67 1018.4
20260902190059 86 176 0.0 1.0 0.00 0.00 0.00 67 1018.2
20260902184552 87 176 0.0 2.0 0.00 0.00 0.00 67 1018.1
20260902183102 88 176 1.0 3.0 0.00 0.00 0.00 67 1018.2
20260902181601 89 176 1.0 4.0 0.00 0.00 0.00 67 1018.5
20260902180105 89 176 1.0 4.0 0.00 0.00 0.00 68 1018.5
20260902174603 89 176 3.0 7.0 0.00 0.00 0.00 68 1018.6
20260902173053 89 176 4.0 7.0 0.00 0.00 0.00 68 1018.6
20260902171607 90 176 2.0 9.0 0.00 0.00 0.00 68 1018.6
20260902170058 90 176 3.0 6.0 0.00 0.00 0.00 68 1018.4
20260902164558 90 176 4.0 7.0 0.00 0.00 0.00 68 1018.4
20260902163051 89 176 3.0 7.0 0.00 0.00 0.00 68 1018.5
20260902161613 87 176 5.0 11.0 0.00 0.00 0.00 67 1018.6
20260902160055 88 184 6.0 14.0 0.00 0.00 0.00 68 1018.6
20260902154555 89 188 2.0 10.0 0.00 0.00 0.00 68 1018.3
20260902153048 88 180 6.0 12.0 0.00 0.00 0.00 68 1018.6
20260902151556 90 181 5.0 11.0 0.00 0.00 0.00 68 1018.8
20260902150055 92 181 6.0 11.0 0.00 0.00 0.00 68 1018.9
20260902144550 93 181 1.0 5.0 0.00 0.00 0.00 68 1018.9
20260902143052 91 181 2.0 7.0 0.00 0.00 0.00 68 1019.0
20260902141554 88 181 5.0 10.0 0.00 0.00 0.00 67 1019.4
20260902140053 88 181 5.0 10.0 0.00 0.00 0.00 67 1019.6
20260902134551 88 181 7.0 11.0 0.00 0.00 0.00 67 1020.0
20260902133100 89 182 5.0 10.0 0.00 0.00 0.00 67 1019.8
20260902131558 87 182 6.0 13.0 0.00 0.00 0.00 67 1019.9
20260902130056 89 182 6.0 10.0 0.00 0.00 0.00 67 1020.1
20260902124550 89 183 3.0 5.0 0.00 0.00 0.00 67 1020.0
20260902123101 89 183 6.0 10.0 0.00 0.00 0.00 67 1020.3
20260902121607 88 183 3.0 7.0 0.00 0.00 0.00 67 1020.4
20260902114608 86 229 6.0 11.0 0.00 0.00 0.00 67 1020.6
20260902113101 86 231 4.0 8.0 0.00 0.00 0.00 67 1020.6
20260902111602 86 231 4.0 7.0 0.00 0.00 0.00 66 1020.7